This is the latest recevied weather packets stored in our database for station/object M0HPP-13. If no packets are shown the sender has not sent any weather packets the latest 10 day(s).
| Time | Temp. | Humidity | Pressure | Rain* | Wind** | Luminosity | Snow |
|---|---|---|---|---|---|---|---|
| 1788121086 | 13.33° C | 99% | 1003.4 hPa | 0 mm | - | 0 W/m² | - |
| 1788119286 | 13.33° C | 99% | 1003.3 hPa | 0 mm | - | 0 W/m² | - |
| 1788118686 | 13.33° C | 99% | 1003.4 hPa | 0 mm | - | 1 W/m² | - |
| 1788118086 | 13.33° C | 99% | 1003.4 hPa | 0 mm | - | 1 W/m² | - |
| 1788117486 | 13.33° C | 99% | 1003.3 hPa | 0 mm | - | 3 W/m² | - |
| 1788116886 | 13.33° C | 99% | 1003.2 hPa | 0 mm | - | 4 W/m² | - |
| 1788116286 | 13.33° C | 99% | 1003.3 hPa | 0 mm | - | 7 W/m² | - |
| 1788115686 | 13.33° C | 99% | 1003.2 hPa | 0 mm | - | 9 W/m² | - |
| 1788115086 | 13.33° C | 99% | 1003.3 hPa | 0 mm | - | 12 W/m² | - |
| 1788114486 | 13.33° C | 99% | 1003.4 hPa | 0 mm | - | 14 W/m² | - |
| 1788113886 | 13.89° C | 99% | 1003.3 hPa | 0 mm | - | 17 W/m² | - |
| 1788113286 | 13.89° C | 99% | 1003.3 hPa | 0 mm | - | 26 W/m² | - |
| 1788112686 | 13.89° C | 99% | 1003.4 hPa | 0 mm | - | 23 W/m² | - |
| 1788112086 | 13.33° C | 99% | 1003.4 hPa | 0 mm | - | 29 W/m² | - |
| 1788111486 | 13.33° C | 99% | 1003.4 hPa | 0.25 mm | - | 22 W/m² | - |
| 1788110886 | 13.33° C | 99% | 1003.4 hPa | 0.76 mm | - | 14 W/m² | - |
| 1788110286 | 13.33° C | 99% | 1003.4 hPa | 1.52 mm | - | 16 W/m² | - |
| 1788109686 | 12.78° C | 99% | 1003.6 hPa | 2.03 mm | - | 9 W/m² | - |
| 1788109086 | 12.78° C | 99% | 1003.6 hPa | 1.78 mm | - | 9 W/m² | - |
| 1788108486 | 12.78° C | 99% | 1003.7 hPa | 1.78 mm | - | 12 W/m² | - |
| 1788107886 | 12.78° C | 99% | 1003.7 hPa | 1.27 mm | - | 13 W/m² | - |
| 1788107286 | 12.78° C | 99% | 1003.8 hPa | 0.51 mm | - | 13 W/m² | - |
| 1788106686 | 12.78° C | 99% | 1003.8 hPa | 0 mm | - | 16 W/m² | - |
| 1788106086 | 12.78° C | 99% | 1003.8 hPa | 0 mm | - | 20 W/m² | - |
| 1788105486 | 13.33° C | 99% | 1003.9 hPa | 0 mm | - | 22 W/m² | - |
* Rain latest hour (hover to see other rain measurements)
** Current wind speed in m/s (hover to see current wind gust speed)